| time (UTC) | temp F | wind direction | speed MPH | gust MPH | rain 1hr in | rain 24hr in | rain mn in | humidity % | barometer mb |
| 20260503211537 | 72 | 285 | 9.0 | 26.0 | 0.00 | 0.00 | 0.00 | 21 | 1010.4 |
| 20260503210053 | 72 | 306 | 7.0 | 21.0 | 0.00 | 0.00 | 0.00 | 24 | 1010.5 |
| 20260503204557 | 71 | 305 | 10.0 | 27.0 | 0.00 | 0.00 | 0.00 | 24 | 1010.7 |
| 20260503203053 | 70 | 323 | 16.0 | 26.0 | 0.00 | 0.00 | 0.00 | 22 | 1010.7 |
| 20260503201546 | 70 | 305 | 16.0 | 29.0 | 0.00 | 0.00 | 0.00 | 24 | 1011.0 |
| 20260503200047 | 70 | 279 | 15.0 | 29.0 | 0.00 | 0.00 | 0.00 | 24 | 1011.1 |
| 20260503194550 | 70 | 285 | 12.0 | 26.0 | 0.00 | 0.00 | 0.00 | 23 | 1011.3 |
| 20260503193043 | 70 | 335 | 12.0 | 26.0 | 0.00 | 0.00 | 0.00 | 25 | 1011.6 |
| 20260503191548 | 70 | 337 | 18.0 | 28.0 | 0.00 | 0.00 | 0.00 | 26 | 1011.8 |
| 20260503190045 | 69 | 307 | 10.0 | 17.0 | 0.00 | 0.00 | 0.00 | 26 | 1012.2 |
| 20260503184537 | 68 | 70 | 1.0 | 13.0 | 0.00 | 0.00 | 0.00 | 30 | 1012.4 |
| 20260503183043 | 67 | 349 | 14.0 | 27.0 | 0.00 | 0.00 | 0.00 | 27 | 1012.6 |
| 20260503181538 | 68 | 295 | 13.0 | 24.0 | 0.00 | 0.00 | 0.00 | 29 | 1012.8 |
| 20260503180056 | 67 | 293 | 13.0 | 20.0 | 0.00 | 0.00 | 0.00 | 29 | 1012.8 |
| 20260503174543 | 67 | 257 | 9.0 | 23.0 | 0.00 | 0.00 | 0.00 | 32 | 1013.4 |
| 20260503173115 | 66 | 285 | 9.0 | 15.0 | 0.00 | 0.00 | 0.00 | 34 | 1013.4 |
| 20260503171545 | 67 | 260 | 7.0 | 20.0 | 0.00 | 0.00 | 0.00 | 36 | 1013.6 |
| 20260503081552 | 45 | 137 | 1.0 | 3.0 | 0.00 | 0.00 | 0.00 | 70 | 1016.0 |
| 20260503071539 | 46 | 25 | 2.0 | 3.0 | 0.00 | 0.00 | 0.00 | 70 | 1016.4 |
| 20260503054539 | 49 | 150 | 2.0 | 3.0 | 0.00 | 0.00 | 0.00 | 62 | 1016.7 |
| 20260503053037 | 49 | 134 | 3.0 | 5.0 | 0.00 | 0.00 | 0.00 | 63 | 1016.7 |
| 20260503051537 | 50 | 119 | 2.0 | 3.0 | 0.00 | 0.00 | 0.00 | 62 | 1017.0 |
| 20260503050036 | 50 | 115 | 2.0 | 4.0 | 0.00 | 0.00 | 0.00 | 61 | 1017.0 |
| 20260503044543 | 52 | 121 | 2.0 | 2.0 | 0.00 | 0.00 | 0.00 | 57 | 1017.0 |
| 20260503043039 | 53 | 0 | 0.0 | 1.0 | 0.00 | 0.00 | 0.00 | 55 | 1017.0 |
| 20260503041542 | 54 | 41 | 0.0 | 2.0 | 0.00 | 0.00 | 0.00 | 52 | 1016.9 |
| 20260503040038 | 55 | 0 | 0.0 | 3.0 | 0.00 | 0.00 | 0.00 | 52 | 1017.0 |
| 20260503034545 | 55 | 44 | 1.0 | 3.0 | 0.00 | 0.00 | 0.00 | 51 | 1016.7 |
| 20260503033035 | 56 | 11 | 0.0 | 2.0 | 0.00 | 0.00 | 0.00 | 51 | 1016.5 |
| 20260503031553 | 56 | 89 | 3.0 | 4.0 | 0.00 | 0.00 | 0.00 | 50 | 1016.2 |
| 20260503030040 | 57 | 87 | 2.0 | 5.0 | 0.00 | 0.00 | 0.00 | 49 | 1015.9 |
| 20260503024538 | 57 | 82 | 3.0 | 5.0 | 0.00 | 0.00 | 0.00 | 49 | 1015.8 |
| 20260503023043 | 58 | 62 | 3.0 | 5.0 | 0.00 | 0.00 | 0.00 | 48 | 1015.6 |
| 20260503021546 | 59 | 51 | 2.0 | 4.0 | 0.00 | 0.00 | 0.00 | 47 | 1015.5 |
| 20260503020051 | 61 | 63 | 3.0 | 5.0 | 0.00 | 0.00 | 0.00 | 44 | 1015.2 |
| 20260503014539 | 62 | 82 | 3.0 | 6.0 | 0.00 | 0.00 | 0.00 | 41 | 1015.2 |
| 20260503013040 | 63 | 76 | 4.0 | 8.0 | 0.00 | 0.00 | 0.00 | 40 | 1015.2 |
| 20260503011553 | 64 | 78 | 5.0 | 9.0 | 0.00 | 0.00 | 0.00 | 39 | 1015.2 |
| 20260503010044 | 64 | 79 | 4.0 | 10.0 | 0.00 | 0.00 | 0.00 | 38 | 1015.2 |
| 20260503004539 | 65 | 73 | 5.0 | 9.0 | 0.00 | 0.00 | 0.00 | 39 | 1015.2 |
| 20260503003041 | 66 | 80 | 7.0 | 19.0 | 0.00 | 0.00 | 0.00 | 37 | 1015.1 |
| 20260503001538 | 67 | 91 | 10.0 | 18.0 | 0.00 | 0.00 | 0.00 | 34 | 1014.9 |
| 20260503000057 | 67 | 73 | 7.0 | 15.0 | 0.00 | 0.00 | 0.00 | 34 | 1014.9 |
| 20260502234546 | 67 | 73 | 4.0 | 10.0 | 0.00 | 0.00 | 0.00 | 35 | 1014.9 |
| 20260502233042 | 67 | 82 | 8.0 | 13.0 | 0.00 | 0.00 | 0.00 | 34 | 1014.9 |
| 20260502231549 | 68 | 80 | 8.0 | 14.0 | 0.00 | 0.00 | 0.00 | 34 | 1014.8 |
| 20260502230042 | 68 | 79 | 9.0 | 16.0 | 0.00 | 0.00 | 0.00 | 32 | 1014.7 |
| 20260502224538 | 70 | 34 | 7.0 | 11.0 | 0.00 | 0.00 | 0.00 | 27 | 1014.6 |
| 20260502223047 | 71 | 58 | 2.0 | 6.0 | 0.00 | 0.00 | 0.00 | 26 | 1014.6 |
| 20260502221549 | 71 | 26 | 5.0 | 10.0 | 0.00 | 0.00 | 0.00 | 26 | 1014.7 |
| 20260502220048 | 72 | 63 | 1.0 | 5.0 | 0.00 | 0.00 | 0.00 | 24 | 1014.7 |
| 20260502214544 | 71 | 101 | 3.0 | 8.0 | 0.00 | 0.00 | 0.00 | 24 | 1014.9 |
| 20260502213042 | 72 | 356 | 5.0 | 11.0 | 0.00 | 0.00 | 0.00 | 24 | 1015.0 |